Showing default

SECOR 4 (EGRS 4), 1315

Orbit data source: Space-Track

SECOR 4 (EGRS 4), 1315 is an American payload satellite in LEO that was launched on Sat, 03 Apr 1965 UTC via an ATLAS SLV-3 AGENA D launch vehicle from the Air Force Western Test Range (AFWTR). Payload-class satellites include a variety of spacecraft equipped with specific instruments for various scientific and technological missions. These include communications satellites like Starlink; space stations such as the ISS; scientific satellites like the Hubble; Earth observation satellites from companies like Planet Labs, Umbra, and HawkEye 360; GPS; miniature CubeSats for education and research; and military/defense satellites.

Loading next visibility...
Identifier
1315, 1965-027B
Orbit
LEO
Country
Flag of USUS
Related business
Manufacturer
ITT
Mission
Spacecraft
Bus & Motor
SECOR, Unknown motor
Mass
18 kg wet, 18 kg dry
Launch date (UTC)
1965-04-03 (61 years ago)
Launch vehicle
ATLAS SLV-3 AGENA D
Launch site
Air Force Western Test Range (AFWTR)
Object type
Payload
Rocket body
Debris
Shape & HBR
BOX, 1.1 m
Radar Cross Section
Medium (>0.1 m² and <1 m²)

Expand to show TLE details & history
Last TLE update: 10 hours ago

TLE from 10 hours ago
0 SECOR 4 (EGRS 4)
1 01315U 65027B   26264.86871715  .00000071  00000-0  23531-3 0  9998
2 01315  90.2598  17.7879 0029724 309.9068 179.2687 12.92669143899417
Epoch: 2026-09-21T20:50Z
TLE epoch observation values (Epoch: 2026-09-21T20:50:57.161Z)
Latitude
50.91023°
Longitude
-115.37443°
Altitude
1,321.949 km
Speed
7.19 km/s
True Right ascension
13h 12m 25s
True Declination
50° 45' 15"
Sunlit
Object was in daylight at epoch
Visualization orbit readout
Latitude
Unknown
Longitude
Unknown
Altitude
Unknown
Speed
Unknown
Apparent Right ascension
Unknown
Apparent Declination
Unknown
Sunlit
N/A
Visualization observer readout
Local Sidereal Time
23:42:38
Azimuth
Unknown
Elevation
Unknown
Doppler factor
Unknown
Orbital elements
Apogee altitude
1,310.87 km
Perigee altitude
1,265.296 km
Semi-major axis
7,666.22 km
Eccentricity
0.00297
Inclination
90.2598°
RAAN
17.7879°
Arg. of periapsis
309.9068°
True anomaly
179.27303°
Mean anomaly
179.2687°
Eccentric anomaly
179.27087°
Mean motion
3.23349 °/min
Orbital period
111.33 mins
BSTAR
0.00023531
Loading maneuver chart data...
Computing Atmospheric mass density...
Loading historical data...
Loading historical data...
Loading historical data...
Loading historical data...
Loading historical data...
Loading historical data...
Loading historical data...

Documentation

Showing up to 5 results
|